FW1932 Weather Reports


time (UTC)temp
C
wind
direction
speed
KPH
gust
KPH
rain 1hr
cm
rain 24hr
cm
rain mn
cm
humidity
%
barometer
mb
20260903111507 27 231 3.2 11.3 0.00 0.00 0.00 43 1024.8
20260903110006 27 245 1.6 11.3 0.00 0.00 0.00 44 1024.8
20260903104504 26 240 4.8 16.1 0.00 0.00 0.00 44 1025.1
20260903103003 26 254 3.2 17.7 0.00 0.00 0.00 44 1025.0
20260903101559 26 238 0.0 8.0 0.00 0.00 0.00 46 1025.1
20260903100058 26 226 1.6 9.7 0.00 0.00 0.00 46 1025.4
20260903094606 25 245 1.6 6.4 0.00 0.00 0.00 51 1025.4
20260903093054 25 266 3.2 8.0 0.00 0.00 0.00 53 1025.5
20260903091557 24 224 1.6 6.4 0.00 0.00 0.00 55 1025.6
20260903090050 23 240 3.2 8.0 0.00 0.00 0.00 56 1025.5
20260903084548 23 239 0.0 4.8 0.00 0.00 0.00 58 1025.5
20260903083043 22 233 0.0 8.0 0.00 0.00 0.00 61 1025.6
20260903081547 21 231 4.8 9.7 0.00 0.00 0.00 63 1025.3
20260903080040 21 243 0.0 4.8 0.00 0.00 0.00 67 1025.8
20260903074534 20 237 1.6 8.0 0.00 0.00 0.00 71 1025.6
20260903073043 19 238 1.6 4.8 0.00 0.00 0.00 74 1025.4
20260903071529 18 253 0.0 3.2 0.00 0.00 0.00 78 1025.3
20260903070027 17 233 0.0 3.2 0.00 0.00 0.00 80 1025.2
20260903064527 16 271 0.0 1.6 0.00 0.00 0.00 85 1025.4
20260903063025 15 269 0.0 1.6 0.00 0.00 0.00 87 1025.4
20260903061525 15 269 0.0 0.0 0.00 0.00 0.00 88 1025.5
20260903060024 15 269 0.0 0.0 0.00 0.00 0.00 88 1025.6
20260903054523 14 269 0.0 0.0 0.00 0.00 0.00 89 1025.3
20260903053019 15 269 0.0 1.6 0.00 0.00 0.00 89 1025.2
20260903051519 15 269 0.0 1.6 0.00 0.00 0.00 88 1025.1
20260903050016 15 268 0.0 0.0 0.00 0.00 0.00 88 1024.9
20260903044517 15 269 0.0 1.6 0.00 0.00 0.00 87 1024.8
20260903043015 15 268 0.0 0.0 0.00 0.00 0.00 87 1024.8
20260903041515 15 268 0.0 1.6 0.00 0.00 0.00 86 1024.8
20260903040015 15 67 0.0 0.0 0.00 0.00 0.00 87 1024.6
20260903034519 15 67 0.0 1.6 0.00 0.00 0.00 86 1024.6
20260903033011 15 256 0.0 0.0 0.00 0.00 0.00 88 1024.7
20260903031510 15 257 0.0 0.0 0.00 0.00 0.00 87 1024.7
20260903030008 15 257 0.0 0.0 0.00 0.00 0.00 85 1024.8
20260903024505 15 257 0.0 0.0 0.00 0.00 0.00 84 1024.6
20260903023004 15 257 0.0 0.0 0.00 0.00 0.00 84 1024.7
20260903021503 15 256 0.0 0.0 0.00 0.00 0.00 83 1024.7
20260903020001 15 257 0.0 0.0 0.00 0.00 0.00 83 1024.8
20260903014601 15 257 0.0 0.0 0.00 0.00 0.00 83 1024.8
20260903013059 16 256 0.0 0.0 0.00 0.00 0.00 83 1024.9
20260903011600 16 255 0.0 0.0 0.00 0.00 0.00 84 1024.8
20260903010056 16 255 0.0 0.0 0.00 0.00 0.00 83 1024.7
20260903004601 16 255 0.0 0.0 0.00 0.00 0.00 82 1024.7
20260903003054 16 255 0.0 0.0 0.00 0.00 0.00 82 1024.7
20260903001551 16 255 0.0 0.0 0.00 0.00 0.00 81 1024.6
20260903000051 16 255 0.0 0.0 0.00 0.00 0.00 81 1024.5
20260902234548 16 255 0.0 0.0 0.00 0.00 0.00 80 1024.4
20260902233058 17 255 0.0 0.0 0.00 0.00 0.00 81 1024.3
20260902231546 17 255 0.0 0.0 0.00 0.00 0.00 82 1024.2
20260902230041 17 256 0.0 0.0 0.00 0.00 0.00 83 1024.1
20260902224548 17 256 0.0 0.0 0.00 0.00 0.00 78 1024.1
20260902223052 17 256 0.0 0.0 0.00 0.00 0.00 76 1024.2
20260902221535 18 256 0.0 0.0 0.00 0.00 0.00 79 1024.3
20260902220032 18 256 0.0 0.0 0.00 0.00 0.00 75 1024.3
20260902214533 18 256 0.0 0.0 0.00 0.00 0.00 74 1024.2
20260902213029 18 256 0.0 0.0 0.00 0.00 0.00 73 1024.0
20260902211528 19 255 0.0 0.0 0.00 0.00 0.00 74 1023.9
20260902210029 20 255 0.0 0.0 0.00 0.00 0.00 73 1024.0
20260902204540 20 255 0.0 0.0 0.00 0.00 0.00 67 1023.6
20260902203027 20 255 0.0 0.0 0.00 0.00 0.00 66 1023.4
20260902201526 21 255 0.0 0.0 0.00 0.00 0.00 66 1023.4
20260902200027 21 255 0.0 0.0 0.00 0.00 0.00 62 1023.3
20260902194526 21 255 0.0 0.0 0.00 0.00 0.00 62 1023.3
20260902193026 22 255 0.0 0.0 0.00 0.00 0.00 61 1023.2
20260902191523 22 255 0.0 0.0 0.00 0.00 0.00 60 1023.2
20260902190024 22 255 0.0 0.0 0.00 0.00 0.00 59 1023.0
20260902184530 23 255 0.0 0.0 0.00 0.00 0.00 57 1022.8
20260902183042 23 256 0.0 0.0 0.00 0.00 0.00 56 1022.7
20260902181522 24 256 0.0 1.6 0.00 0.00 0.00 54 1022.7
20260902180022 25 252 0.0 3.2 0.00 0.00 0.00 53 1022.6
20260902174524 25 247 0.0 1.6 0.00 0.00 0.00 53 1022.4
20260902173026 25 247 0.0 4.8 0.00 0.00 0.00 51 1022.3
20260902171520 25 233 0.0 6.4 0.00 0.00 0.00 51 1022.2
20260902170020 25 248 0.0 3.2 0.00 0.00 0.00 53 1022.2
20260902164523 25 205 3.2 6.4 0.00 0.00 0.00 51 1022.1
20260902163019 26 241 1.6 8.0 0.00 0.00 0.00 50 1022.0
20260902161518 26 252 3.2 9.7 0.00 0.00 0.00 49 1022.1
20260902160017 26 245 1.6 11.3 0.00 0.00 0.00 49 1022.1
20260902154518 26 247 0.0 8.0 0.00 0.00 0.00 50 1022.3
20260902153018 27 198 0.0 11.3 0.00 0.00 0.00 48 1022.2
20260902151516 27 232 3.2 8.0 0.00 0.00 0.00 47 1022.2
20260902150016 28 248 3.2 14.5 0.00 0.00 0.00 46 1022.2
20260902144513 28 225 4.8 14.5 0.00 0.00 0.00 45 1022.2
20260902143017 28 133 1.6 9.7 0.00 0.00 0.00 43 1022.1
20260902141512 28 191 4.8 16.1 0.00 0.00 0.00 42 1022.0
20260902140013 28 243 1.6 9.7 0.00 0.00 0.00 41 1022.1
20260902134510 27 250 6.4 12.9 0.00 0.00 0.00 41 1022.0
20260902133011 28 238 3.2 9.7 0.00 0.00 0.00 41 1022.2
20260902131509 28 250 3.2 8.0 0.00 0.00 0.00 41 1022.3
20260902130008 28 211 0.0 8.0 0.00 0.00 0.00 41 1022.4
20260902124505 28 124 3.2 11.3 0.00 0.00 0.00 38 1022.6
20260902123005 28 218 1.6 6.4 0.00 0.00 0.00 37 1022.6
20260902121501 28 255 0.0 4.8 0.00 0.00 0.00 40 1022.6
20260902120059 28 243 0.0 6.4 0.00 0.00 0.00 41 1022.7
20260902114557 28 243 1.6 6.4 0.00 0.00 0.00 44 1022.8
20260902113056 27 245 0.0 9.7 0.00 0.00 0.00 48 1022.8
20260902111555 27 242 0.0 3.2 0.00 0.00 0.00 49 1023.0